Location: Unspecified
(41.1850°N, 73.2650°W)
Time: 01:21:01
(UTC+00:00)

Tiangong - Visible Passes

Search period start: 21 October 2021 00:00
Search period end: 31 October 2021 00:00
Orbit: 382 x 384 km, 41.5° (Epoch: 20 October)

Date Brightness Start Highest point End Pass type
(mag) Time Alt. Az. Time Alt. Az. Time Alt. Az.
21 Oct 1.2 22:40:01 10° WSW 22:43:10 64° SSE 22:45:56 13° E visible
22 Oct 3.6 00:16:47 10° W 00:18:07 23° W 00:18:07 23° W visible
22 Oct 1.0 23:16:35 10° W 23:19:45 85° N 23:20:45 41° E visible
23 Oct 2.1 23:53:13 10° W 23:55:32 45° W 23:55:32 45° W visible
24 Oct 1.0 22:52:58 10° W 22:56:09 83° N 22:58:08 21° E visible
25 Oct 4.4 00:29:49 10° W 00:30:19 14° W 00:30:19 14° W visible
25 Oct 1.0 23:29:32 10° W 23:32:41 71° SSW 23:32:56 66° SSE visible
26 Oct 1.1 22:29:15 10° W 22:32:25 89° S 22:35:36 10° E visible
27 Oct 3.5 00:06:11 10° W 00:07:46 23° WSW 00:07:46 23° WSW visible
27 Oct 1.7 23:05:47 10° W 23:08:52 50° SSW 23:10:29 24° SE visible
28 Oct 3.2 23:42:38 10° W 23:45:05 21° SSW 23:45:28 20° SSW visible
29 Oct 2.6 22:42:01 10° W 22:44:54 33° SSW 22:47:46 10° SE visible
30 Oct 4.0 23:19:30 10° WSW 23:20:57 13° SSW 23:22:24 10° S visible
